Tracking 31027 objects as of 19-Jul-2025
HD Live streaming from Space Station
objects crossing your sky now

STARLINK-32668

Track STARLINK-32668 now!
10-day predictions
STARLINK-32668 is classified as:


NORAD ID: 62212
Int'l Code: 2024-229W
Perigee: 490.0 km
Apogee: 490.3 km
Inclination: 43.0 °
Period: 94.3 minutes
Semi major axis: 6861 km
RCS: Unknown
Launch date: December 4, 2024
Source: United States (US)
Launch site: AIR FORCE EASTERN TEST RANGE (AFETR)
Your satellite tracking list
SUPERVIEW-1 03
Track 1 satellite(s)




NASA's NSSDC Master Catalog

Two Line Element Set (TLE):
1 62212U 24229W   25199.89932855  .00011933  00000-0  44226-3 0  9995
2 62212  42.9965 147.7995 0000291 251.1858 108.8962 15.27592767 35872
Source of the keplerian elements: AFSPC